Weather History for Waco, TX

Change the Weather History Date:

Wednesday, November 5, 2014

  Actual Average Record
Temperature  
Mean Temperature 56 °F 62 °F  
Max Temperature 57 °F 73 °F 88 °F (1963)
Min Temperature 54 °F 51 °F 28 °F (1992)
Degree Days  
Heating Degree Days 9 5  
Month to date heating degree days 31 25  
Since 1 July heating degree days 43 92  
Cooling Degree Days 0 2  
Month to date cooling degree days 1 12  
Year to date cooling degree days 2744 2768  
Growing Degree Days 6 (Base 50)    
Moisture  
Dew Point 54 °F    
Average Humidity 97    
Maximum Humidity 100    
Minimum Humidity 93    
Precipitation  
Precipitation 0.78 in 0.10 in 1.80 in (1913)
Month to date precipitation 1.83 0.54  
Year to date precipitation 28.70 29.66  
Snow  
Snow 0.00 in 0.00 in 0.00 in ()
Month to date snowfall 0.0 0.0  
Since 1 July snowfall 0.0 0.0  
Since 1 September snowfall 0.0 0.0  
Snow Depth 0.00 in    
Sea Level Pressure  
Sea Level Pressure 30.18 in    
Wind  
Wind Speed 10 mph (North)    
Max Wind Speed 16 mph    
Max Gust Speed 21 mph    
Visibility 6 miles    
Events Rain    
T = Trace of Precipitation, MM = Missing Value Source: NWS Daily Summary

Daily Weather History Graph

Daily Weather History Graph

Search for Another Location

Airport:

Trip Planner

Search our weather history database for the weather conditions in past years. The results will help you decide how hot, cold, wet, or windy it might be!

Date:

Astronomy

Nov. 05, 2014 Rise Set
Actual Time 6:48 AM CST 5:36 PM CST
Civil Twilight 6:23 AM CST 6:01 PM CST
Nautical Twilight 5:54 AM CST 6:30 PM CST
Astronomical Twilight 5:25 AM CST 6:59 PM CST
Moon 4:58 PM CST (11/5) 5:20 AM CST (11/5)
Length of Visible Light 11h 38m
Length of Day
10h 47m
Waxing Gibbous, 98% of the Moon is Illuminated
Nov 5
Waxing Gibbous
Nov 6
Full
Nov 14
Last Quarter
Nov 22
New
Nov 29
First Quarter

Hourly Weather History & Observations

Time (CST) Temp. Dew Point Humidity Pressure Visibility Wind Dir Wind Speed Gust Speed Precip Events Conditions
12:51 AM 57.0 °F 55.9 °F 96% 30.16 in 8.0 mi North 9.2 mph - 0.02 in Rain Light Rain
1:14 AM 57.0 °F 55.9 °F 96% 30.18 in 6.0 mi North 10.4 mph - 0.00 in Rain Light Rain
1:51 AM 57.0 °F 55.9 °F 96% 30.15 in 6.0 mi North 8.1 mph - 0.02 in Rain Light Rain
2:51 AM 55.0 °F 54.0 °F 96% 30.16 in 10.0 mi North 12.7 mph - 0.00 in Rain Light Rain
3:51 AM 54.0 °F 53.1 °F 97% 30.14 in 8.0 mi North 11.5 mph - 0.04 in Rain Light Rain
4:51 AM 54.0 °F 53.1 °F 97% 30.13 in 10.0 mi North 12.7 mph - 0.00 in Rain Light Rain
5:00 AM 54.0 °F 53.1 °F 97% 30.14 in 10.0 mi North 11.5 mph - 0.01 in Rain Light Rain
5:51 AM 54.0 °F 53.1 °F 97% 30.15 in 5.0 mi North 12.7 mph - 0.06 in Rain Rain
6:13 AM 54.0 °F 53.1 °F 97% 30.15 in 5.0 mi North 11.5 mph - 0.03 in Rain Light Rain
6:51 AM 54.0 °F 53.1 °F 97% 30.16 in 5.0 mi North 9.2 mph - 0.05 in Rain Light Rain
7:51 AM 54.0 °F 53.1 °F 97% 30.18 in 4.0 mi North 9.2 mph - 0.07 in Rain Light Rain
8:11 AM 54.0 °F 53.1 °F 97% 30.18 in 3.0 mi North 11.5 mph - 0.02 in Rain Rain
8:18 AM 54.0 °F 53.1 °F 97% 30.19 in 3.0 mi North 11.5 mph - 0.03 in Rain Rain
8:41 AM 54.0 °F 53.1 °F 97% 30.21 in 2.0 mi NNW 12.7 mph - 0.10 in Rain Heavy Rain
8:47 AM 53.6 °F 53.6 °F 100% 30.21 in 1.8 mi North 12.7 mph - 0.13 in Rain Heavy Rain
8:51 AM 54.0 °F 53.1 °F 97% 30.21 in 1.8 mi North 12.7 mph - 0.14 in Rain Rain
8:59 AM 54.0 °F 53.1 °F 97% 30.22 in 3.0 mi North 12.7 mph - 0.01 in Rain Rain
9:51 AM 54.0 °F 53.1 °F 97% 30.20 in 3.0 mi North 12.7 mph - 0.08 in Rain Light Rain
10:51 AM 55.0 °F 54.0 °F 96% 30.21 in 3.0 mi North 10.4 mph - 0.04 in Rain Light Rain
11:51 AM 55.9 °F 54.0 °F 93% 30.19 in 10.0 mi North 12.7 mph - 0.04 in Rain Light Rain
12:51 PM 55.9 °F 54.0 °F 93% 30.17 in 10.0 mi North 11.5 mph - 0.02 in Rain Light Rain
1:51 PM 57.0 °F 55.0 °F 93% 30.16 in 7.0 mi North 11.5 mph - 0.05 in Rain Light Rain
2:19 PM 57.0 °F 55.0 °F 93% 30.16 in 7.0 mi North 9.2 mph - 0.01 in Rain Light Rain
2:51 PM 57.0 °F 55.0 °F 93% 30.17 in 7.0 mi North 8.1 mph - 0.04 in Rain Light Rain
3:32 PM 57.0 °F 55.0 °F 93% 30.17 in 8.0 mi North 9.2 mph - 0.01 in Rain Light Rain
3:51 PM 57.0 °F 55.9 °F 96% 30.15 in 4.0 mi North 11.5 mph - 0.03 in Rain Rain
4:51 PM 57.0 °F 55.9 °F 96% 30.16 in 10.0 mi NNE 5.8 mph - 0.02 in Rain Light Rain
5:51 PM 57.0 °F 55.9 °F 96% 30.19 in 7.0 mi North 9.2 mph - 0.04 in Rain Light Rain
6:51 PM 57.0 °F 55.9 °F 96% 30.21 in 8.0 mi North 8.1 mph - 0.02 in Rain Light Rain
7:43 PM 55.9 °F 54.0 °F 93% 30.20 in 9.0 mi North 11.5 mph - 0.00 in Rain Light Rain
7:51 PM 55.9 °F 54.0 °F 93% 30.19 in 10.0 mi NNE 8.1 mph - 0.00 in Rain Light Rain
8:51 PM 55.9 °F 55.0 °F 97% 30.21 in 8.0 mi NNW 6.9 mph - 0.01 in   Overcast
9:51 PM 55.9 °F 54.0 °F 93% 30.22 in 7.0 mi NNW 6.9 mph - N/A   Overcast
10:51 PM 55.9 °F 54.0 °F 93% 30.24 in 7.0 mi NNW 5.8 mph - N/A   Overcast
10:58 PM 55.9 °F 54.0 °F 93% 30.24 in 7.0 mi North 5.8 mph - N/A   Mostly Cloudy
11:51 PM 55.9 °F 54.0 °F 93% 30.25 in 6.0 mi North 9.2 mph - N/A   Overcast